Location: Frankfurt+am+Main
(50.1100°N, 8.4815°E)
Time: 01:05:09
(UTC+01:00)

ISS - Pass Details

Date: 11 November 2017
Orbit: 402 x 407 km, 51.6° (Epoch: 24 November)

Event Time Altitude Azimuth Distance (km) Brightness Sun altitude
Exits shadow 05:09:50 44° 68° (ENE) 571 -2.7 -22.9°
Drops below altitude 10° 05:12:15 10° 88° (E) 1,457 0.1 -22.5°
Sets 05:14:20 0° 91° (E) 2,316 1.5 -22.2°
